Location: Newcastle
(43.9170°N, 78.5830°W)
Time: 19:09:22
(UTC-04:00)

Daily predictions for brighter satellites

Satellite Brightness Start Highest point End
(mag) Time Altitude Azimuth Time Altitude Azimuth Time Altitude Azimuth
Aureole 1 Rocket 3.8 19:44:05 10° N 19:49:13 40° ENE 19:53:09 10° SE
Cosmos 2237 4.4 19:44:22 10° NNW 19:50:08 83° WSW 19:55:51 10° SSE
CZ-2D R/B 3.4 19:46:28 10° SSE 19:50:10 53° ENE 19:53:53 10° N
USA 116 4.0 19:49:35 10° N 19:53:41 73° WNW 19:57:16 10° SSW
Cosmos 2184 Rocket 4.1 19:48:58 10° N 19:55:08 61° E 20:01:20 10° SSE
Cosmos 2333 4.3 19:49:45 10° NNW 19:55:23 62° ENE 20:01:01 10° SE
Cosmos 1536 Rocket 3.5 19:54:53 10° N 19:59:13 66° E 20:03:30 10° SSE
Cosmos 1025 Rocket 3.0 19:56:57 10° N 20:01:11 58° E 20:05:22 10° SSE
Cosmos 1975 3.2 19:57:55 10° SSW 20:01:53 70° W 20:05:53 10° N
Cosmos 2219 Rocket 2.5 19:58:33 10° NNW 20:03:59 49° ENE 20:09:24 10° SE
COSMOS 2428 3.0 19:58:59 10° NNW 20:04:31 51° ENE 20:10:02 10° SE
YAOGAN 1 3.5 20:00:30 10° S 20:04:44 53° W 20:08:59 10° NNW
Cosmos 405 3.8 20:01:45 10° NNW 20:05:11 54° W 20:08:35 10° S
Cosmos 2322 3.8 20:01:42 10° NNW 20:07:29 90° WSW 20:13:12 10° SSE
SPOT 3 Rocket 4.3 20:04:47 10° SE 20:09:17 32° ENE 20:13:47 10° N
NOAA 11 4.2 20:03:52 10° SSE 20:09:21 79° ENE 20:14:52 10° N
Cosmos 1842 3.2 20:05:36 10° N 20:09:34 83° E 20:13:31 10° S
Lacrosse 4 Rocket 4.1 20:10:49 10° WNW 20:13:45 19° WSW 20:16:39 10° SSW
Meteor 1-12 Rocket 4.2 20:09:13 10° S 20:14:54 68° E 20:20:32 10° NNE
NOSS 3-4 (A) 4.2 20:08:20 10° NNW 20:15:02 48° NE 20:21:26 14° ESE
NOSS 3-4 (C) 4.2 20:08:27 10° NNW 20:15:08 47° NE 20:21:30 14° ESE
Cosmos 2360 Rocket 3.3 20:09:58 10° NW 20:15:22 48° WSW 20:20:46 10° S
NOSS 3-3 (A) 4.3 20:17:13 10° SW 20:23:07 69° NW 20:29:45 10° NE
NOSS 3-3 (C) 4.3 20:17:19 10° SW 20:23:13 69° NW 20:29:51 10° NE
Cosmos 405 Rocket 4.2 20:25:36 17° E 20:25:36 17° E 20:27:38 10° NE
Meteor 1-21 4.4 20:19:53 10° NNW 20:25:29 75° W 20:31:06 10° S
Nadezhda 1 Rocket 3.9 20:19:30 10° S 20:25:31 71° E 20:31:35 10° NNE
Cosmos 2327 Rocket 4.4 20:19:32 10° N 20:25:49 79° E 20:31:58 10° S
Cosmos 1544 2.9 20:22:31 10° S 20:26:04 68° E 20:29:40 10° NNE
Cosmos 2219 3.8 20:21:43 10° SSE 20:26:51 35° ESE 20:32:00 10° NE
Cosmos 2151 Rocket 4.5 20:23:41 10° SSW 20:27:59 53° WNW 20:32:18 10° N
CZ-2C R/B 3.8 20:23:41 10° NNE 20:28:02 50° E 20:32:19 10° S
Cosmos 2227 Rocket 3.3 20:24:07 10° SE 20:28:10 21° E 20:32:13 10° NE
Meteor 2-15 Rocket 4.4 20:22:12 10° S 20:28:18 78° E 20:34:29 10° NNE
FREGAT/IRIS 2.3 20:25:38 10° SSE 20:28:21 66° ENE 20:31:09 10° N
Timation 2 Rocket 4.2 20:23:02 10° SSW 20:29:39 79° WNW 20:36:03 10° NNE
SAR-Lupe-2 3.4 20:27:47 10° NNE 20:31:23 72° ESE 20:34:55 10° S
Cosmos 1461 3.1 20:29:22 10° SW 20:33:23 69° NW 20:37:21 10° NNE
NOSS 0 Rocket 4.1 20:27:53 10° NNW 20:33:57 53° ENE 20:38:32 18° SE
CZ-4 R/B 4.3 20:32:25 10° SW 20:35:00 17° W 20:37:36 10° NW
Cosmos 1295 Rocket 4.5 20:32:14 10° N 20:38:22 59° E 20:44:23 10° SSE
Cosmos 2297 Rocket 3.0 20:34:28 10° SSE 20:39:05 27° ESE 20:43:43 10° NE
ARGOS 3.6 20:35:45 18° SE 20:39:21 41° ENE 20:44:22 10° N
H-2A R/B 2.4 20:37:25 19° SE 20:40:32 42° ENE 20:45:13 10° N
Cosmos 1441 Rocket 3.3 20:39:39 10° SSW 20:43:29 74° W 20:47:17 10° N
Cosmos 389 Rocket 2.8 20:45:02 10° N 20:48:18 41° ENE 20:48:44 39° E
ADEOS Rocket 3.7 20:41:59 10° NNE 20:49:04 49° E 20:56:29 10° S
ASTEX 1 3.3 20:45:32 10° N 20:50:27 84° E 20:55:20 10° S
ISS -1.3 20:49:00 10° S 20:49:14 11° S 20:49:14 11° S
Cosmos 1455 Rocket 3.8 20:51:49 31° E 20:52:05 31° E 20:56:02 10° NNE
USA 186 2.0 20:55:20 20° S 20:57:30 72° W 21:00:56 10° NNW
GEOS 3 Rocket 4.4 20:52:56 10° SSE 20:57:50 46° WSW 21:02:45 10° NW
Cosmos 2333 Rocket 2.6 20:52:17 10° NNW 20:57:56 64° WSW 21:03:23 11° S
ATLAS 2AS CENTAUR R/B 2.9 20:51:15 10° NW 20:58:56 79° WSW 21:04:16 19° SSE
SL-08 RB Rocket 4.2 20:57:54 34° ESE 20:59:11 42° ENE 21:03:35 10° N
Cosmos 1674 4.5 20:57:28 10° NNE 20:59:05 18° NE 20:59:05 18° NE
DELTA 2 R/B (1) 4.4 20:56:01 10° SW 21:00:52 31° SSE 21:01:43 29° SE
Cosmos 2341 Rocket 3.9 20:56:25 10° N 21:02:40 74° E 21:07:52 15° SSE
SJ-6B 3.0 21:00:04 18° S 21:03:03 80° WSW 21:07:11 10° NNW
Cosmos 2181 Rocket 4.0 20:58:33 10° SSE 21:04:36 57° E 21:10:47 10° NNE
Cosmos 1190 Rocket 4.1 20:59:41 10° NNW 21:04:55 56° ENE 21:06:46 37° SE
Meteor 1-4 Rocket 2.7 21:01:33 10° N 21:04:47 48° ENE 21:04:47 48° ENE
Cosmos 1707 3.0 21:02:38 10° NNW 21:06:33 68° W 21:09:07 20° S
Meteor 2-5 Rocket 4.0 21:03:38 10° N 21:09:15 49° ENE 21:11:07 36° ESE
Cosmos 2237 Rocket 2.2 21:04:17 10° NNW 21:09:59 65° ENE 21:12:11 37° SE
Resurs 1-3 3.6 21:09:06 47° ESE 21:10:01 58° ENE 21:14:20 10° N
SL-8 R/B 4.2 21:05:39 10° W 21:10:22 56° NNW 21:12:47 27° NE
In-Cosmos 22 4.0 21:06:29 10° N 21:11:51 75° E 21:14:37 30° SSE
Okean 1 Rocket 4.4 21:08:24 10° SSW 21:12:30 40° WNW 21:16:37 10° N
COSMOS 2455 4.5 21:07:30 10° NW 21:12:40 31° WSW 21:17:49 10° SSW
Resurs 01 Rocket 1.9 21:12:21 46° E 21:12:42 47° ENE 21:16:58 10° N
Cosmos 1980 3.6 21:13:14 10° NNW 21:18:55 81° ENE 21:21:01 40° SSE
BREEZE M DEB (TANK) 3.3 21:19:51 10° WNW 21:22:14 35° NNE 21:23:05 31° NE
Cosmos 2218 Rocket 4.0 21:17:30 10° N 21:23:53 65° E 21:26:12 39° SE
CZ-2C R/B 3.1 21:23:17 50° SE 21:24:27 63° ENE 21:29:51 10° N
Cosmos 2366 rocket 4.0 21:23:31 10° N 21:29:53 67° E 21:31:53 44° SE
Cosmos 2056 Rocket 3.5 21:25:45 10° SSW 21:31:11 87° ESE 21:36:38 10° NNE
Cosmos 864 Rocket 4.4 21:28:54 10° N 21:35:08 70° E 21:36:47 49° SE
DMSP B5D2-2 4.3 21:31:54 10° NNE 21:36:24 51° ENE 21:36:24 51° ENE
Cosmos 407 Rocket 3.6 21:32:47 10° NNW 21:37:53 68° WSW 21:39:16 47° S
SL-16 R/B 2.6 21:33:52 10° NNW 21:39:18 44° ENE 21:39:25 44° ENE
Cosmos 614 Rocket 4.1 21:35:02 10° NNW 21:40:14 69° WSW 21:41:32 49° S
SL-8 Rocket 4.0 21:34:55 10° N 21:41:08 81° W 21:43:56 35° S
Cosmos 1624 Rocket 4.1 21:38:19 10° SSW 21:43:30 71° WNW 21:48:43 10° NNE
Cosmos 2219 Rocket 4.1 21:43:06 10° NW 21:47:36 25° WSW 21:52:06 10° SSW
Cosmos 1892 Rocket 4.5 21:44:10 10° NNW 21:48:27 46° W 21:49:30 38° SW
Cosmos 1437 Rocket 4.2 21:51:34 10° NNW 21:53:44 32° NNW 21:53:44 32° NNW
Cosmos 1959 Rocket 4.5 21:49:37 10° N 21:55:44 76° W 21:57:30 49° SSW
Terra 4.1 21:58:46 14° NNE 21:58:46 14° NNE 21:59:48 10° NNE
ERS-1 Rocket 4.4 22:00:31 27° NNE 22:00:31 27° NNE 22:03:19 10° N
Cosmos 1954 Rocket 4.0 21:53:36 10° NNW 21:58:33 80° NNW 21:58:33 80° NNW
Spot 2 Rocket 3.6 22:00:56 67° N 22:00:56 67° N 22:05:19 10° NNW
Cosmos 405 Rocket 4.4 22:00:40 29° W 22:00:53 29° WNW 22:04:11 10° N
CZ-2C R/B 3.7 21:57:01 10° NNE 22:00:20 35° NE 22:00:20 35° NE
Cosmos 1140 Rocket 3.9 22:02:06 10° NNW 22:07:10 57° WSW 22:07:13 57° WSW
Cosmos 2227 Rocket 2.6 22:06:06 10° SW 22:11:41 61° WNW 22:17:19 10° NNE
MetOp-B 4.4 22:19:12 65° NW 22:19:12 65° NW 22:23:50 10° NNW
H-2A R/B 3.9 22:18:02 18° SW 22:20:08 23° W 22:24:07 10° NW
Cosmos 2297 Rocket 3.0 22:17:23 10° SW 22:22:50 48° WNW 22:28:19 10° NNE
Resurs 01 Rocket 4.1 22:49:56 17° W 22:49:56 17° W 22:52:24 10° NW
Cosmos 2237 Rocket 4.2 22:49:33 10° NW 22:53:27 19° W 22:54:01 19° WSW
SL-16 R/B 4.1 23:18:23 10° NW 23:21:18 24° WNW 23:21:18 24° WNW
